Satellite: NO-44
Catalog number: 26931
Epoch time:      10196.32816006
Element set:     508
Inclination:      067.0521 deg
RA of node:       131.4711 deg
Eccentricity:    0.0005318
Arg of perigee:   265.5141 deg
Mean anomaly:     094.5350 deg
Mean motion:   14.29603835 rev/day
Decay rate:       1.77e-06 rev/day^2
Epoch rev:           45877
Checksum:              288

Satellite: SO-50
Catalog number: 27607
Epoch time:      10196.48332756
Element set:     221
Inclination:      064.5582 deg
RA of node:       270.5717 deg
Eccentricity:    0.0035873
Arg of perigee:   063.5273 deg
Mean anomaly:     296.9471 deg
Mean motion:   14.71554937 rev/day
Decay rate:        8.5e-07 rev/day^2
Epoch rev:           40654
Checksum:              325

Satellite: CO-55
Catalog number: 27844
Epoch time:      10196.54755306
Element set:     890
Inclination:      098.7090 deg
RA of node:       205.1132 deg
Eccentricity:    0.0010893
Arg of perigee:   087.4986 deg
Mean anomaly:     272.7456 deg
Mean motion:   14.20717830 rev/day
Decay rate:        5.0e-07 rev/day^2
Epoch rev:           36511
Checksum:              312

Satellite: CO-57
Catalog number: 27848
Epoch time:      10196.51085336
Element set:     840
Inclination:      098.7134 deg
RA of node:       204.1761 deg
Eccentricity:    0.0010696
Arg of perigee:   092.3648 deg
Mean anomaly:     267.8745 deg
Mean motion:   14.20509525 rev/day
Decay rate:        2.7e-07 rev/day^2
Epoch rev:           36506
Checksum:              320

Satellite: AO-51
Catalog number: 28375
Epoch time:      10195.99898986
Element set:     724
Inclination:      098.0632 deg
RA of node:       187.9121 deg
Eccentricity:    0.0085015
Arg of perigee:   013.3961 deg
Mean anomaly:     346.9456 deg
Mean motion:   14.40690780 rev/day
Decay rate:        1.1e-07 rev/day^2
Epoch rev:           31751
Checksum:              331

Satellite: GENESAT1
Catalog number: 29655
Epoch time:      10196.37512634
Element set:     172
Inclination:      040.0145 deg
RA of node:       203.3329 deg
Eccentricity:    0.0008593
Arg of perigee:   176.0536 deg
Mean anomaly:     184.0646 deg
Mean motion:   16.03791059 rev/day
Decay rate:    2.29562e-03 rev/day^2
Epoch rev:           20450
Checksum:              288

Satellite: CP3
Catalog number: 31129
Epoch time:      10196.46427681
Element set:     627
Inclination:      097.9362 deg
RA of node:       234.5215 deg
Eccentricity:    0.0103442
Arg of perigee:   145.1795 deg
Mean anomaly:     215.6238 deg
Mean motion:   14.52278266 rev/day
Decay rate:       1.68e-06 rev/day^2
Epoch rev:           17196
Checksum:              311

Satellite: CO-65
Catalog number: 32785
Epoch time:      10196.32566834
Element set:     732
Inclination:      097.8946 deg
RA of node:       260.8623 deg
Eccentricity:    0.0014552
Arg of perigee:   189.1706 deg
Mean anomaly:     170.9267 deg
Mean motion:   14.81677253 rev/day
Decay rate:      -1.38e-06 rev/day^2
Epoch rev:           11965
Checksum:              342

Satellite: KKS-1
Catalog number: 33493
Epoch time:      10196.83302258
Element set:     664
Inclination:      098.0885 deg
RA of node:       316.5736 deg
Eccentricity:    0.0021143
Arg of perigee:   051.2273 deg
Mean anomaly:     309.0832 deg
Mean motion:   14.81032850 rev/day
Decay rate:       2.94e-06 rev/day^2
Epoch rev:            7972
Checksum:              294

Satellite: SOHLA-1
Catalog number: 33496
Epoch time:      10195.80594797
Element set:    0152
Inclination:      098.0607 deg
RA of node:       304.5260 deg
Eccentricity:    0.0007619
Arg of perigee:   111.8040 deg
Mean anomaly:     248.3989 deg
Mean motion:   14.69502307 rev/day
Decay rate:       -6.0e-07 rev/day^2
Epoch rev:           07893
Checksum:              312

Satellite: STUDSAT
Catalog number: 36801
Epoch time:      10196.78582254
Element set:      14
Inclination:      098.1468 deg
RA of node:       255.9808 deg
Eccentricity:    0.0013548
Arg of perigee:   276.1619 deg
Mean anomaly:     083.8047 deg
Mean motion:   14.79744784 rev/day
Decay rate:       6.98e-06 rev/day^2
Epoch rev:              54
Checksum:              333

/EX
SB KEPS @ AMSAT  $ORB10196.W
Orbital Elements  10196.WEATHER

HR AMSAT ORBITAL ELEMENTS FOR WEATHER SATELLITES
FROM WA5QGD FORT WORTH,TX July 15, 2010
Send Subscribe/unsubscribe to KEPS at http://www.amsat.org/mailman/listinfo/kep
BID: ORB10196.W
TO ALL RADIO AMATEURS BT

Satellite: NOAA-10
Catalog number: 16969
Epoch time:      10195.70086032
Element set:    0133
Inclination:      098.6546 deg
RA of node:       224.4084 deg
Eccentricity:    0.0012866
Arg of perigee:   128.5891 deg
Mean anomaly:     231.6446 deg
Mean motion:   14.27420936 rev/day
Decay rate:       -6.8e-07 rev/day^2
Epoch rev:           23950
Checksum:              309

Satellite: NOAA-11
Catalog number: 19531
Epoch time:      10195.74826372
Element set:    0146
Inclination:      098.7707 deg
RA of node:       284.3050 deg
Eccentricity:    0.0012402
Arg of perigee:   070.3497 deg
Mean anomaly:     289.9031 deg
Mean motion:   14.14929261 rev/day
Decay rate:      -1.74e-06 rev/day^2
Epoch rev:           12503
Checksum:              291

